Weather in Lashkuta

Russia / The Kabardino-Balkar Republic     43°33′00″N   43°12′24″E
temp.,
°C
wind,
m/s
gust,
m/s
humid.,
%
clouds,
%
prec.,
mm/h
press.,
hPa
HPBL,
m
9 march, tue
tue900:00−9sw336323 0.0 101951
03:00−9sw336015 0.0 101953
06:00−9sw335616 0.0 101954
09:00−4se01598 0.0 1018347
12:00−1ne22580 0.0 1017868
15:000ne225715 0.1 10161080
18:00−4ne117871 0.1 101921
21:00−6sw338586 0.5 102294
10 march, wed
wed1000:00−8sw336895 0.3 102393
03:00−9sw336193 0.3 102491
06:00−9sw335997 0.1 102562
09:00−5e126955 0.3 1024486
12:00−4ne338885 0.6 1022445
15:00−4ene338992 1.4 1021395
18:00−6ene2396100 0.8 1021199
21:00−7e2296100 1.9 1022170
11 march, thu
thu1100:00−7e2296100 0.9 1020160
03:00−9e2295100 1.6 1019175
06:00−10ese1293100 0.3 1018219
09:00−9e2289100 0.6 1017421
12:00−7ene3489100 0.9 1016510
15:00−8e3491100 3.0 1015548
18:00−11e3494100 1.8 1016381
21:00−12e2395100 3.3 1017289
12 march, fri
fri1200:00−14e2395100 0.9 1017280
03:00−15ese2294100 1.5 1017263
06:00−16sse1293100 0.4 1019114
09:00−13e2388100 1.1 1022489
12:00−12e3389100 0.9 1022525
15:00−12e3392100 2.1 1024466
18:00−13e2296100 1.8 1027231
21:00−15ese1299100 2.4 1030103
13 march, sat
sat1300:00−17s229292 0.1 103124
03:00−17s127849 0.1 103220
06:00−16ssw22691 0.0 103220
09:00−9e11671 0.0 1031197
12:00−5ne21818 0.0 1030348
15:00−5ene229033 0.1 1028287
18:00−11se1199100 0.1 102822
21:00−9sw227667 0.1 102921